This demonstration page uses our WeatherBlox Daily Observations layout. Learn more.

Left ArrowRight Arrow

Hourly Observations for October 20, 2021

Temp ( °F °C ) Dew Point ( °F °C ) Humidity (%) Winds ( mph kmh ) Pressure ( in mb ) Visibility ( mi km ) Precip ( " mm )
12:53 am 00:53 Clear 65 18.3 55 12.8 70 70 SE 10 17 29.89 1012 10 16 N/A
1:53 am 01:53 Clear 61 16.1 55 12.8 81 81 ESE 8 13 29.90 1013 10 16 N/A
2:53 am 02:53 Clear 62 16.7 56 13.3 80 80 ESE 8 13 29.91 1013 10 16 N/A
3:53 am 03:53 Clear 60 15.6 56 13.3 86 86 ESE 9 15 29.91 1013 10 16 N/A
4:53 am 04:53 Clear 59 15 56 13.3 90 90 E 8 13 29.91 1013 10 16 N/A
5:53 am 05:53 Clear 54 12.2 52 11.1 93 93 N 3 6 29.95 1014 9 14 N/A
6:53 am 06:53 Clear 51 10.6 50 10 96 96 N 6 9 29.98 1015 8 13 N/A
7:53 am 07:53 Clear 49 9.4 47 8.3 93 93 N 7 11 30.02 1017 8 13 N/A
8:53 am 08:53 Sunny with Mist and Fog 52 11.1 49 9.4 89 89 N 5 7 30.04 1017 5 8 N/A
9:00 am 09:00 Partly Cloudy with Mist and Fog 52 11.1 50 10 93 93 N 6 9 30.11 1020 5 8 N/A
9:53 am 09:53 Sunny 58 14.4 54 12.2 87 87 N 7 11 30.06 1018 8 13 N/A
10:53 am 10:53 Sunny 69 20.6 57 13.9 66 66 NNE 8 13 30.06 1018 10 16 N/A
11:53 am 11:53 Sunny 76 24.4 54 12.2 47 47 N 13 20 30.04 1017 10 16 N/A
12:53 pm 12:53 Sunny 81 27.2 44 6.7 27 27 N 9 15 30.03 1017 10 16 N/A
1:53 pm 13:53 Sunny 84 28.9 41 5 22 22 NNW 5 7 30.00 1016 10 16 N/A
2:53 pm 14:53 Sunny 85 29.4 38 3.3 19 19 SSW 5 7 29.98 1015 10 16 N/A
3:53 pm 15:53 Sunny 87 30.6 36 2.2 16 16 N N/A 29.96 1015 10 16 N/A
4:53 pm 16:53 Sunny 87 30.6 37 2.8 17 17 WNW 6 9 29.95 1014 10 16 N/A
5:53 pm 17:53 Sunny 86 30 36 2.2 17 17 SSW 5 7 29.96 1014 10 16 N/A
6:53 pm 18:53 Sunny 86 30 36 2.2 17 17 N N/A 29.96 1015 10 16 N/A
7:53 pm 19:53 Clear 80 26.7 36 2.2 20 20 N N/A 29.98 1015 10 16 N/A
8:53 pm 20:53 Clear 71 21.7 35 1.7 27 27 ENE 6 9 30.01 1016 10 16 N/A
9:53 pm 21:53 Clear 69 20.6 35 1.7 29 29 E 3 6 30.02 1017 10 16 N/A
10:53 pm 22:53 Clear 70 21.1 48 8.9 46 46 ESE 8 13 30.02 1017 10 16 N/A
11:53 pm 23:53 Clear 65 18.3 50 10 59 59 ESE 7 11 30.02 1017 10 16 N/A

Powered by AerisWeather